DAL1147 KATL-KORD

Flight info

Callsign DAL1147
Flight time N/A
Altitude 33000
Route VARNM2 GLAZR Q118 VOSTK/N0463F340 Q118 HEVAN BONNT VEECK5
Aircraft A321/M-SDE3FGHIRWY/LB1

Departure

Time 2026-05-07 07:18
Airport Hartsfield Jackson Atlanta International Airport (KATL)

Arrival

Time N/A
Airport Chicago O'Hare International Airport (KORD)
Time Latitude Longitude Altitude Speed Heading
2026-05-07 07:05 33.63887 -84.44116 1015 ft 0 kts 360°
2026-05-07 07:06 33.63890 -84.44116 1015 ft 1 kts 360°
2026-05-07 07:06 33.63906 -84.44116 1015 ft 3 kts 360°
2026-05-07 07:06 33.63921 -84.44116 1015 ft 0 kts 360°
2026-05-07 07:07 33.63922 -84.44116 1015 ft 1 kts
2026-05-07 07:07 33.63928 -84.44116 1015 ft 0 kts
2026-05-07 07:07 33.63931 -84.44116 1015 ft 1 kts
2026-05-07 07:08 33.63949 -84.44116 1016 ft 5 kts
2026-05-07 07:08 33.63994 -84.44116 1016 ft 8 kts 360°
2026-05-07 07:08 33.64064 -84.44116 1016 ft 12 kts
2026-05-07 07:08 33.64160 -84.44115 1016 ft 16 kts
2026-05-07 07:09 33.64277 -84.44113 1016 ft 16 kts
2026-05-07 07:09 33.64376 -84.44111 1016 ft 12 kts
2026-05-07 07:09 33.64447 -84.44108 1016 ft 8 kts 11°
2026-05-07 07:09 33.64485 -84.44075 1015 ft 5 kts 54°
2026-05-07 07:10 33.64496 -84.44036 1014 ft 5 kts 78°
2026-05-07 07:10 33.64502 -84.43984 1013 ft 7 kts 83°
2026-05-07 07:10 33.64509 -84.43919 1013 ft 8 kts 81°
2026-05-07 07:10 33.64518 -84.43854 1013 ft 7 kts 79°
2026-05-07 07:11 33.64526 -84.43803 1015 ft 6 kts 79°
2026-05-07 07:11 33.64535 -84.43747 1016 ft 5 kts 80°
2026-05-07 07:11 33.64537 -84.43728 1016 ft 0 kts 82°
2026-05-07 07:11 33.64537 -84.43727 1016 ft 0 kts 82°
2026-05-07 07:12 33.64539 -84.43709 1017 ft 4 kts 84°
2026-05-07 07:12 33.64541 -84.43661 1018 ft 8 kts 88°
2026-05-07 07:12 33.64542 -84.43563 1019 ft 16 kts 90°
2026-05-07 07:12 33.64543 -84.43398 1020 ft 24 kts 89°
2026-05-07 07:13 33.64546 -84.43203 1021 ft 22 kts 94°
2026-05-07 07:13 33.64542 -84.43020 1019 ft 22 kts 89°
2026-05-07 07:13 33.64547 -84.42838 1016 ft 22 kts 90°
2026-05-07 07:13 33.64543 -84.42659 1014 ft 21 kts 92°
2026-05-07 07:14 33.64542 -84.42481 1011 ft 21 kts 89°
2026-05-07 07:14 33.64542 -84.42306 1010 ft 20 kts 88°
2026-05-07 07:14 33.64545 -84.42148 1012 ft 18 kts 90°
2026-05-07 07:14 33.64546 -84.42010 1012 ft 15 kts 89°
2026-05-07 07:15 33.64543 -84.41876 1014 ft 19 kts 90°
2026-05-07 07:15 33.64544 -84.41685 1017 ft 27 kts 92°
2026-05-07 07:15 33.64544 -84.41429 1019 ft 34 kts 87°
2026-05-07 07:15 33.64544 -84.41156 1018 ft 32 kts 91°
2026-05-07 07:16 33.64544 -84.40888 1013 ft 32 kts 90°
2026-05-07 07:16 33.64565 -84.40647 1011 ft 22 kts 77°
2026-05-07 07:16 33.64599 -84.40569 1011 ft 3 kts 15°
2026-05-07 07:16 33.64652 -84.40570 1011 ft 12 kts 347°
2026-05-07 07:17 33.64680 -84.40642 1011 ft 10 kts 277°
2026-05-07 07:17 33.64683 -84.40835 1015 ft 50 kts 271°
2026-05-07 07:17 33.64671 -84.41515 1021 ft 110 kts 268°
2026-05-07 07:17 33.64681 -84.42638 1013 ft 157 kts 269°
2026-05-07 07:18 33.64685 -84.44009 1386 ft 164 kts 271°
2026-05-07 07:18 33.64659 -84.45341 2150 ft 158 kts 264°
2026-05-07 07:18 33.64932 -84.46660 2739 ft 170 kts 286°
2026-05-07 07:18 33.65441 -84.48016 3068 ft 188 kts 286°
2026-05-07 07:19 33.66005 -84.49535 3310 ft 211 kts 287°
2026-05-07 07:19 33.66641 -84.51242 3567 ft 236 kts 287°
2026-05-07 07:19 33.67347 -84.53128 4031 ft 255 kts 288°
2026-05-07 07:19 33.68088 -84.55080 4824 ft 258 kts 289°
2026-05-07 07:20 33.69003 -84.56948 5600 ft 267 kts 308°
2026-05-07 07:20 33.70634 -84.58110 6338 ft 286 kts 341°
2026-05-07 07:20 33.72648 -84.58317 7067 ft 293 kts 353°
2026-05-07 07:20 33.74696 -84.58306 7822 ft 295 kts 355°
2026-05-07 07:21 33.76756 -84.58242 8497 ft 297 kts 355°
2026-05-07 07:21 33.78826 -84.58169 9169 ft 299 kts 355°
2026-05-07 07:21 33.80912 -84.58110 9763 ft 302 kts 354°
2026-05-07 07:21 33.83020 -84.58081 10187 ft 305 kts 353°
2026-05-07 07:22 33.85217 -84.58097 10305 ft 326 kts 352°
2026-05-07 07:22 33.87551 -84.58162 10429 ft 345 kts 352°
2026-05-07 07:22 33.90018 -84.58258 10545 ft 364 kts 352°
2026-05-07 07:22 33.92600 -84.58358 10812 ft 376 kts 352°
2026-05-07 07:23 33.95201 -84.58446 11313 ft 381 kts 352°
2026-05-07 07:23 33.97861 -84.58523 11861 ft 384 kts 352°
2026-05-07 07:23 34.00544 -84.58599 12421 ft 387 kts 352°
2026-05-07 07:23 34.03248 -84.58674 12976 ft 390 kts 352°
2026-05-07 07:24 34.05975 -84.58752 13513 ft 393 kts 351°
2026-05-07 07:24 34.08721 -84.58830 13999 ft 396 kts 351°
2026-05-07 07:24 34.10590 -84.58885 14321 ft 398 kts 351°
2026-05-07 07:24 34.13370 -84.58970 14801 ft 401 kts 351°
2026-05-07 07:25 34.18980 -84.59143 15738 ft 406 kts 350°
2026-05-07 07:25 34.21810 -84.59228 16210 ft 408 kts 350°
2026-05-07 07:25 34.24623 -84.59312 16662 ft 410 kts 349°
2026-05-07 07:26 34.27486 -84.59399 17111 ft 412 kts 349°
2026-05-07 07:26 34.30356 -84.59520 17565 ft 413 kts 348°
2026-05-07 07:26 34.33234 -84.59726 18014 ft 415 kts 347°
2026-05-07 07:26 34.36116 -84.59987 18425 ft 416 kts 346°
2026-05-07 07:27 34.39015 -84.60270 18808 ft 419 kts 346°
2026-05-07 07:27 34.41925 -84.60558 19176 ft 421 kts 345°
2026-05-07 07:27 34.44854 -84.60836 19544 ft 424 kts 346°
2026-05-07 07:27 34.47807 -84.61101 19897 ft 426 kts 346°
2026-05-07 07:28 34.50779 -84.61357 20252 ft 429 kts 346°
2026-05-07 07:28 34.53769 -84.61607 20622 ft 432 kts 346°
2026-05-07 07:28 34.56771 -84.61860 20990 ft 434 kts 346°
2026-05-07 07:28 34.59800 -84.62116 21346 ft 437 kts 345°
2026-05-07 07:29 34.62840 -84.62374 21678 ft 440 kts 346°
2026-05-07 07:29 34.65903 -84.62635 22032 ft 442 kts 345°
2026-05-07 07:29 34.68982 -84.62898 22373 ft 444 kts 346°
2026-05-07 07:29 34.72070 -84.63158 22718 ft 447 kts 345°
2026-05-07 07:30 34.75187 -84.63422 23014 ft 450 kts 345°
2026-05-07 07:30 34.78317 -84.63688 23270 ft 453 kts 345°
2026-05-07 07:30 34.81466 -84.63960 23581 ft 455 kts 345°
2026-05-07 07:30 34.84631 -84.64234 23868 ft 457 kts 345°
2026-05-07 07:31 34.87818 -84.64508 24134 ft 460 kts 345°
2026-05-07 07:31 34.91016 -84.64784 24388 ft 462 kts 345°
2026-05-07 07:31 34.94237 -84.65061 24662 ft 464 kts 345°
2026-05-07 07:31 34.97469 -84.65340 24928 ft 467 kts 345°
2026-05-07 07:32 35.00681 -84.65617 25170 ft 469 kts 345°
2026-05-07 07:32 35.03950 -84.65898 25418 ft 472 kts 345°
2026-05-07 07:32 35.07244 -84.66183 25680 ft 474 kts 345°
2026-05-07 07:32 35.10546 -84.66468 25945 ft 476 kts 345°
2026-05-07 07:33 35.13860 -84.66753 26210 ft 479 kts 344°
2026-05-07 07:33 35.17196 -84.67043 26446 ft 481 kts 344°
2026-05-07 07:33 35.20535 -84.67333 26706 ft 483 kts 344°
2026-05-07 07:33 35.23900 -84.67626 26969 ft 485 kts 344°
2026-05-07 07:34 35.27275 -84.67919 27228 ft 487 kts 344°
2026-05-07 07:34 35.30666 -84.68212 27490 ft 489 kts 344°
2026-05-07 07:34 35.34066 -84.68508 27742 ft 491 kts 343°
2026-05-07 07:34 35.37472 -84.68800 28088 ft 490 kts 343°
2026-05-07 07:35 35.40873 -84.69090 28432 ft 489 kts 343°
2026-05-07 07:35 35.44265 -84.69380 28778 ft 489 kts 343°
2026-05-07 07:35 35.47614 -84.69669 29117 ft 488 kts 343°
2026-05-07 07:35 35.51042 -84.69967 29461 ft 487 kts 342°
2026-05-07 07:36 35.54422 -84.70263 29790 ft 487 kts 342°
2026-05-07 07:36 35.57751 -84.70554 30108 ft 486 kts 342°
2026-05-07 07:36 35.61167 -84.70854 30370 ft 486 kts 342°
2026-05-07 07:36 35.64494 -84.71147 30632 ft 485 kts 342°
2026-05-07 07:37 35.67857 -84.71446 30897 ft 485 kts 342°
2026-05-07 07:37 35.71225 -84.71746 31157 ft 485 kts 342°
2026-05-07 07:37 35.74594 -84.72046 31417 ft 485 kts 341°
2026-05-07 07:37 35.77963 -84.72348 31677 ft 485 kts 341°
2026-05-07 07:38 35.81336 -84.72649 31923 ft 486 kts 341°
2026-05-07 07:38 35.84707 -84.72944 32183 ft 486 kts 341°
2026-05-07 07:38 35.88085 -84.73235 32442 ft 486 kts 341°
2026-05-07 07:38 35.91456 -84.73525 32712 ft 486 kts 341°
2026-05-07 07:39 35.94831 -84.73820 32946 ft 486 kts 341°
2026-05-07 07:39 36.01543 -84.74408 33006 ft 481 kts 341°
2026-05-07 07:40 36.08211 -84.74992 33006 ft 479 kts 340°
2026-05-07 07:40 36.14862 -84.75582 33011 ft 478 kts 340°
2026-05-07 07:41 36.21509 -84.76171 33016 ft 478 kts 340°
2026-05-07 07:41 36.28088 -84.76767 33026 ft 477 kts 340°
2026-05-07 07:42 36.34705 -84.77365 33043 ft 477 kts 340°
2026-05-07 07:42 36.41331 -84.77950 33058 ft 478 kts 341°
2026-05-07 07:42 36.44700 -84.77983 33062 ft 489 kts 346°
2026-05-07 07:43 36.48103 -84.77894 33068 ft 489 kts 346°
2026-05-07 07:43 36.54913 -84.77683 33074 ft 489 kts 346°
2026-05-07 07:44 36.61709 -84.77465 33080 ft 488 kts 346°
2026-05-07 07:44 36.68507 -84.77261 33084 ft 488 kts 345°
2026-05-07 07:45 36.75281 -84.77068 33081 ft 487 kts 345°
2026-05-07 07:45 36.82053 -84.76877 33085 ft 487 kts 345°
2026-05-07 07:46 36.88820 -84.76679 33086 ft 486 kts 345°
2026-05-07 07:46 36.95536 -84.76482 33087 ft 486 kts 345°
2026-05-07 07:47 37.02304 -84.76284 33090 ft 486 kts 345°
2026-05-07 07:47 37.09060 -84.76088 33090 ft 486 kts 345°
2026-05-07 07:48 37.15818 -84.75890 33087 ft 486 kts 345°
2026-05-07 07:48 37.22577 -84.75690 33094 ft 486 kts 345°
2026-05-07 07:49 37.29343 -84.75498 33092 ft 486 kts 345°
2026-05-07 07:49 37.36117 -84.75293 33085 ft 488 kts 345°
2026-05-07 07:50 37.42905 -84.75063 33081 ft 488 kts 345°
2026-05-07 07:50 37.49696 -84.74830 33077 ft 489 kts 345°
2026-05-07 07:51 37.56457 -84.74617 33078 ft 489 kts 345°
2026-05-07 07:51 37.63270 -84.74399 33087 ft 490 kts 345°
2026-05-07 07:52 37.70084 -84.74164 33091 ft 490 kts 345°
2026-05-07 07:52 37.76894 -84.73944 33092 ft 489 kts 344°
2026-05-07 07:53 37.83699 -84.73747 33090 ft 489 kts 344°
2026-05-07 07:53 37.90500 -84.73542 33087 ft 489 kts 344°
2026-05-07 07:54 37.97296 -84.73330 33089 ft 488 kts 344°
2026-05-07 07:54 38.04091 -84.73116 33086 ft 488 kts 344°
2026-05-07 07:54 38.07476 -84.73011 33206 ft 487 kts 344°
2026-05-07 07:55 38.10867 -84.72906 33474 ft 487 kts 343°
2026-05-07 07:55 38.14256 -84.72795 33749 ft 487 kts 343°
2026-05-07 07:55 38.17646 -84.72683 33979 ft 487 kts 343°
2026-05-07 07:56 38.24413 -84.72464 34047 ft 486 kts 343°
2026-05-07 07:56 38.31117 -84.72262 34046 ft 485 kts 343°
2026-05-07 07:57 38.37860 -84.72064 34047 ft 485 kts 343°
2026-05-07 07:57 38.44583 -84.71922 34046 ft 474 kts 338°
2026-05-07 07:57 38.47773 -84.72382 34046 ft 450 kts 329°
2026-05-07 07:58 38.50723 -84.73382 34054 ft 427 kts 321°
2026-05-07 07:58 38.56270 -84.75975 34065 ft 425 kts 320°
2026-05-07 07:59 38.61820 -84.78568 34073 ft 425 kts 320°
2026-05-07 07:59 38.67385 -84.81151 34086 ft 425 kts 320°
2026-05-07 08:00 38.72946 -84.83728 34091 ft 425 kts 320°
2026-05-07 08:00 38.78435 -84.86273 34086 ft 424 kts 320°
2026-05-07 08:01 38.83973 -84.88855 34092 ft 423 kts 320°
2026-05-07 08:01 38.89507 -84.91447 34084 ft 423 kts 320°
2026-05-07 08:02 38.94999 -84.94016 34088 ft 422 kts 320°
2026-05-07 08:02 39.00521 -84.96602 34091 ft 422 kts 320°
2026-05-07 08:03 39.06035 -84.99187 34092 ft 422 kts 320°
2026-05-07 08:03 39.11543 -85.01778 34094 ft 421 kts 320°
2026-05-07 08:04 39.17006 -85.04351 34090 ft 420 kts 320°
2026-05-07 08:04 39.22505 -85.06938 34098 ft 421 kts 320°
2026-05-07 08:05 39.27995 -85.09527 34100 ft 420 kts 320°
2026-05-07 08:05 39.33489 -85.12127 34098 ft 420 kts 319°
2026-05-07 08:06 39.33733 -85.12243 34096 ft 420 kts 319°
2026-05-07 08:09 39.34966 -85.12823 34094 ft 421 kts 320°
2026-05-07 08:09 39.40465 -85.15420 34090 ft 420 kts 319°
2026-05-07 08:10 39.45957 -85.18033 34089 ft 420 kts 319°
2026-05-07 08:10 39.51409 -85.20631 34085 ft 420 kts 319°
2026-05-07 08:11 39.56938 -85.23261 34087 ft 421 kts 319°
2026-05-07 08:11 39.62437 -85.25877 34094 ft 421 kts 319°
2026-05-07 08:12 39.67896 -85.28478 34089 ft 421 kts 319°
2026-05-07 08:12 39.73390 -85.31109 34097 ft 421 kts 319°
2026-05-07 08:13 39.78884 -85.33746 34097 ft 421 kts 319°
2026-05-07 08:13 39.84372 -85.36378 34098 ft 420 kts 319°
2026-05-07 08:14 39.88935 -85.38569 34096 ft 420 kts 319°
2026-05-07 08:14 39.94416 -85.41210 34098 ft 420 kts 318°
2026-05-07 08:15 39.99887 -85.43858 34101 ft 419 kts 318°
2026-05-07 08:15 40.05351 -85.46502 34095 ft 419 kts 319°
2026-05-07 08:16 40.10818 -85.49149 34096 ft 418 kts 319°
2026-05-07 08:16 40.16274 -85.51795 34099 ft 418 kts 319°
2026-05-07 08:17 40.21729 -85.54437 34098 ft 418 kts 319°
2026-05-07 08:17 40.27185 -85.57092 34099 ft 418 kts 319°
2026-05-07 08:18 40.32631 -85.59755 34100 ft 418 kts 319°
2026-05-07 08:18 40.38042 -85.62395 34098 ft 418 kts 319°
2026-05-07 08:19 40.43499 -85.65053 34100 ft 418 kts 320°
2026-05-07 08:19 40.48959 -85.67728 34092 ft 420 kts 321°
2026-05-07 08:20 40.54607 -85.70104 34092 ft 432 kts 326°
2026-05-07 08:20 40.60454 -85.72134 34090 ft 436 kts 327°
2026-05-07 08:21 40.66327 -85.74153 34087 ft 435 kts 327°
2026-05-07 08:21 40.72158 -85.76267 34088 ft 434 kts 327°
2026-05-07 08:22 40.77971 -85.78433 34072 ft 434 kts 327°
2026-05-07 08:22 40.83432 -85.81132 34065 ft 402 kts 312°
2026-05-07 08:22 40.85630 -85.83230 34062 ft 381 kts 303°
2026-05-07 08:23 40.87413 -85.85704 34064 ft 364 kts 294°
2026-05-07 08:23 40.88796 -85.88426 34058 ft 351 kts 287°
2026-05-07 08:23 40.89819 -85.91309 34059 ft 345 kts 283°
2026-05-07 08:24 40.91717 -85.97157 34051 ft 347 kts 283°
2026-05-07 08:24 40.93628 -86.03029 34057 ft 348 kts 283°
2026-05-07 08:25 40.95539 -86.08919 34054 ft 349 kts 283°
2026-05-07 08:25 40.97452 -86.14831 34053 ft 350 kts 283°
2026-05-07 08:26 41.00314 -86.23712 34061 ft 351 kts 283°
2026-05-07 08:26 41.02232 -86.29675 34057 ft 353 kts 283°
2026-05-07 08:27 41.04153 -86.35661 34062 ft 354 kts 284°
2026-05-07 08:27 41.06077 -86.41662 34065 ft 354 kts 283°
2026-05-07 08:28 41.08002 -86.47681 34066 ft 355 kts 284°
2026-05-07 08:28 41.09924 -86.53708 34066 ft 355 kts 284°
2026-05-07 08:29 41.11843 -86.59752 34068 ft 356 kts 284°
2026-05-07 08:29 41.14106 -86.65675 34067 ft 363 kts 289°
2026-05-07 08:30 41.16547 -86.71497 34073 ft 364 kts 289°
2026-05-07 08:30 41.19005 -86.77365 34074 ft 364 kts 289°
2026-05-07 08:31 41.21468 -86.83245 34064 ft 365 kts 289°
2026-05-07 08:31 41.23927 -86.89138 34071 ft 365 kts 289°
2026-05-07 08:32 41.26372 -86.95043 34071 ft 365 kts 289°
2026-05-07 08:32 41.28821 -87.00952 34071 ft 365 kts 289°
2026-05-07 08:33 41.30054 -87.03916 33911 ft 366 kts 289°
2026-05-07 08:33 41.31287 -87.06876 33511 ft 366 kts 289°
2026-05-07 08:33 41.32512 -87.09835 33164 ft 365 kts 289°
2026-05-07 08:33 41.33731 -87.12783 32811 ft 363 kts 289°
2026-05-07 08:34 41.34945 -87.15713 31887 ft 359 kts 289°
2026-05-07 08:34 41.36257 -87.18520 30950 ft 358 kts 296°
2026-05-07 08:34 41.37910 -87.21044 30026 ft 368 kts 304°
2026-05-07 08:34 41.39831 -87.23367 28911 ft 376 kts 306°
2026-05-07 08:35 41.41768 -87.25675 27815 ft 383 kts 308°
2026-05-07 08:35 41.44090 -87.27719 26757 ft 422 kts 325°
2026-05-07 08:35 41.47007 -87.28861 25738 ft 454 kts 341°
2026-05-07 08:35 41.50253 -87.28857 24509 ft 482 kts
2026-05-07 08:36 41.53476 -87.27354 23372 ft 502 kts 21°
2026-05-07 08:36 41.56447 -87.24905 22157 ft 499 kts 26°
2026-05-07 08:36 41.59312 -87.22413 20787 ft 485 kts 27°
2026-05-07 08:36 41.62086 -87.19959 19505 ft 471 kts 28°
2026-05-07 08:37 41.64792 -87.17571 18505 ft 462 kts 28°
2026-05-07 08:37 41.67448 -87.15247 17552 ft 451 kts 27°
2026-05-07 08:37 41.70053 -87.12995 16601 ft 441 kts 27°
2026-05-07 08:37 41.72583 -87.10814 16102 ft 422 kts 27°
2026-05-07 08:38 41.74997 -87.08725 15585 ft 405 kts 27°
2026-05-07 08:38 41.77327 -87.06713 15059 ft 392 kts 27°
2026-05-07 08:38 41.79584 -87.04762 14543 ft 380 kts 27°
2026-05-07 08:38 41.81819 -87.02946 14026 ft 370 kts 19°
2026-05-07 08:39 41.84212 -87.01887 13415 ft 358 kts
2026-05-07 08:39 41.86650 -87.01708 12896 ft 345 kts 349°
2026-05-07 08:39 41.88969 -87.02314 12368 ft 335 kts 336°
2026-05-07 08:39 41.91027 -87.03570 11887 ft 326 kts 324°
2026-05-07 08:40 41.92797 -87.05401 11399 ft 318 kts 312°
2026-05-07 08:40 41.94173 -87.07671 11012 ft 309 kts 300°
2026-05-07 08:40 41.95100 -87.10191 10890 ft 295 kts 289°
2026-05-07 08:40 41.95590 -87.12800 10760 ft 282 kts 278°
2026-05-07 08:41 41.95749 -87.15376 10631 ft 271 kts 275°
2026-05-07 08:41 41.95874 -87.17855 10463 ft 262 kts 275°
2026-05-07 08:41 41.95999 -87.20273 10265 ft 257 kts 275°
2026-05-07 08:41 41.96124 -87.22668 10115 ft 257 kts 275°
2026-05-07 08:42 41.96248 -87.25063 9941 ft 257 kts 275°
2026-05-07 08:42 41.96371 -87.27484 9450 ft 259 kts 275°
2026-05-07 08:42 41.96492 -87.29894 9059 ft 257 kts 275°
2026-05-07 08:42 41.96561 -87.32250 9011 ft 254 kts 273°
2026-05-07 08:43 41.96575 -87.34628 9017 ft 255 kts 272°
2026-05-07 08:43 41.96574 -87.37006 9020 ft 255 kts 272°
2026-05-07 08:43 41.96570 -87.39395 9021 ft 255 kts 271°
2026-05-07 08:43 41.96543 -87.41776 9021 ft 255 kts 271°
2026-05-07 08:44 41.96536 -87.44157 9020 ft 255 kts 272°
2026-05-07 08:44 41.96542 -87.46542 9019 ft 255 kts 272°
2026-05-07 08:44 41.96550 -87.48923 9022 ft 255 kts 272°
2026-05-07 08:44 41.96555 -87.51287 8748 ft 252 kts 272°
2026-05-07 08:45 41.96560 -87.53644 8335 ft 251 kts 272°
2026-05-07 08:45 41.96564 -87.55987 7934 ft 251 kts 272°
2026-05-07 08:45 41.96568 -87.58327 7538 ft 250 kts 273°
2026-05-07 08:45 41.96571 -87.60644 7181 ft 248 kts 273°
2026-05-07 08:46 41.96575 -87.62955 6767 ft 247 kts 274°
2026-05-07 08:46 41.96577 -87.65265 6424 ft 247 kts 274°
2026-05-07 08:46 41.96579 -87.67565 6031 ft 246 kts 273°
2026-05-07 08:46 41.96581 -87.69863 5617 ft 246 kts 273°
2026-05-07 08:47 41.96582 -87.72161 5203 ft 246 kts 272°
2026-05-07 08:47 41.96583 -87.74468 4809 ft 247 kts 272°
2026-05-07 08:47 41.96583 -87.76770 4408 ft 246 kts 272°
2026-05-07 08:47 41.96582 -87.79071 3999 ft 244 kts 272°